星链-36849(STARLINK-36849)

导读

STARLINK-36849(NORAD编号68304)是SpaceX星链星座的一颗低轨宽带卫星,隶属于Starlink第二代卫星星座组网进程中的卫星。星链卫星整体采用氩气离子推进系统,配备相控阵天线与光学激光星间链路,单星可支持高速低延迟通信,为全球提供宽带互联网接入服务。2026年SpaceX启动星链轨道调整计划,将包括该星在内的数千颗星链卫星轨道从550公里降至480公里,降低碰撞风险,减少太空碎片隐患,提升近地轨道运行安全性。卫星设计服役周期约4-5年,退役后会主动离轨再入大气层销毁。

Basic Information
目录编号:
68304
目录名称:
STARLINK-36849
国际标识:
2026-057L
轨道中心:
EARTH
卫星名称:
星链-36849
卫星全名:
星链-36849(STARLINK-36849)
卫星状态:
在轨 (已飞行168 天)
发射日期:
2026-03-20 UTC
国别 :
美国 (US)
星等 :
--
Orbit Information
数据来源 国际轨道数据
星历时间: 2026-09-04T03:44:36+0800
11小时前
查看轨道信息
半长轴: 6843.666km
偏心率: 0.0000881
轨道倾角: 97.285°
近地点辐角 69.528°
升交点赤经 12.393°
平近点角 290.606°
近地点: 464.926km
远地点: 466.132km
周期: 93.906分钟
每日圈数: 15.334499
Detailed Information
固有亮度:
5
最大亮度:
2.5
卫星平台:
Starlink V1.0
覆盖范围:
全球
运营商:
太空探索技术公司
运营商所在国:
美国
制造商(研发单位):
太空探索技术公司
制造商所在国:
美国
使用方式:
暂无
Satellite Introduction
Starlink 计划是 SpaceX 推出的全球卫星互联网项目,通过发射低轨道卫星,为全球尤其是偏远地区提供高速、低延迟的互联网服务。自 2019 年起,Starlink 已部署数千颗卫星,旨在缩小全球数字鸿沟,推动互联网普及。该项目还为军事、航空等行业提供通信支持,带来广泛经济效益。
2D Orbit Map
3D Orbit Map
Orbit Altitude Analysis Chart
Orbit Inclination Analysis Chart
Orbit Comprehensive Analysis Chart
View Comprehensive Chart
Conjunction Data List
Event ID Objects TCA Miss Dist (km) Collision Risk Probability Collision Risk Index (CRI) Action
CDM_260904-091105-174306-830421
2026-09-04T
09:11:23+0000
2.466 km
极远距离
1.779656E-6 低风险 0.4
CDM_260903-054706-020106-830422
2026-09-03T
05:47:38+0000
2.940 km
极远距离
1.355715E-6 低风险 0.38
CDM_260903-151505-284406-830421
2026-09-03T
15:15:27+0000
2.510 km
极远距离
1.333066E-6 低风险 0.37
CDM_260831-175806-350706-830421
2026-08-31T
17:58:54+0000
2.935 km
极远距离
9.114559E-7 极低风险 0.34
CDM_260903-093905-211006-830421
2026-09-03T
09:39:55+0000
2.981 km
极远距离
8.358449E-7 极低风险 0.33